Weather History for Apalachicola, FL

Change the Weather History Date:

Saturday, December 21, 2013

  Actual Average Record
Temperature  
Mean Temperature 71 °F 54 °F  
Max Temperature 76 °F 64 °F 76 °F (1931)
Min Temperature 65 °F 44 °F 27 °F (1996)
Degree Days  
Heating Degree Days 0    
Month to date heating degree days 99  
Since 1 July heating degree days 232  
Cooling Degree Days 6    
Month to date cooling degree days 49  
Year to date cooling degree days 2769  
Growing Degree Days 20 (Base 50)    
Moisture  
Dew Point 66 °F    
Average Humidity 82    
Maximum Humidity 90    
Minimum Humidity 74    
Precipitation  
Precipitation 0.00 in 0.11 in 2.79 in (1972)
Month to date precipitation 3.02 2.24  
Year to date precipitation 60.30 56.63  
Sea Level Pressure  
Sea Level Pressure 30.02 in    
Wind  
Wind Speed 10 mph (SE)    
Max Wind Speed 17 mph    
Max Gust Speed 23 mph    
Visibility 8 miles    
Events      
T = Trace of Precipitation, MM = Missing Value Source: NWS Daily Summary

Daily Weather History Graph

Daily Weather History Graph

Search for Another Location

Airport:

Trip Planner

Search our weather history database for the weather conditions in past years. The results will help you decide how hot, cold, wet, or windy it might be!

Date:

Astronomy

Dec. 21, 2013 Rise Set
Actual Time 7:31 AM EST 5:45 PM EST
Civil Twilight 7:05 AM EST 6:11 PM EST
Nautical Twilight 6:35 AM EST 6:41 PM EST
Astronomical Twilight 6:06 AM EST 7:10 PM EST
Moon 9:44 PM EST (12/21) 10:11 AM EST (12/21)
Length of Visible Light 11h 06m
Length of Day
10h 14m
Waning Gibbous, 84% of the Moon is Illuminated
Dec 21
Waning Gibbous
Dec 25
Last Quarter
Jan 1
New
Jan 7
First Quarter
Jan 15
Full

Hourly Weather History & Observations

Time (EST) Temp. Dew Point Humidity Pressure Visibility Wind Dir Wind Speed Gust Speed Precip Events Conditions
12:53 AM 66.0 °F 61.0 °F 84% 30.09 in 10.0 mi East 6.9 mph - N/A   Mostly Cloudy
1:53 AM 66.9 °F 62.1 °F 84% 30.06 in 10.0 mi East 5.8 mph - N/A   Overcast
2:53 AM 66.9 °F 62.1 °F 84% 30.06 in 10.0 mi East 4.6 mph - N/A   Overcast
3:53 AM 66.9 °F 62.1 °F 84% 30.05 in 10.0 mi East 5.8 mph - N/A   Overcast
4:53 AM 69.1 °F 64.0 °F 84% 30.04 in 10.0 mi SE 8.1 mph - N/A   Scattered Clouds
5:53 AM 70.0 °F 64.9 °F 84% 30.04 in 10.0 mi SE 12.7 mph - N/A   Overcast
6:53 AM 69.1 °F 64.9 °F 87% 30.05 in 10.0 mi SE 12.7 mph 20.7 mph N/A   Partly Cloudy
7:32 AM 69.8 °F 64.4 °F 83% 30.06 in 9.0 mi SSE 10.4 mph - N/A   Mostly Cloudy
7:53 AM 70.0 °F 64.9 °F 84% 30.06 in 9.0 mi SE 10.4 mph - N/A   Overcast
8:53 AM 71.1 °F 66.0 °F 84% 30.06 in 9.0 mi SSE 11.5 mph - N/A   Overcast
9:53 AM 72.0 °F 66.0 °F 81% 30.06 in 10.0 mi SSE 12.7 mph - N/A   Overcast
10:31 AM 73.4 °F 66.2 °F 78% 30.07 in 10.0 mi SE 13.8 mph - N/A   Mostly Cloudy
10:45 AM 73.4 °F 66.2 °F 78% 30.07 in 10.0 mi SSE 12.7 mph - N/A   Overcast
10:53 AM 73.0 °F 66.0 °F 79% 30.07 in 10.0 mi SE 12.7 mph - N/A   Overcast
11:53 AM 75.0 °F 66.9 °F 76% 30.05 in 10.0 mi SE 12.7 mph 19.6 mph N/A   Overcast
12:15 PM 73.4 °F 66.2 °F 78% 30.04 in 10.0 mi SE 11.5 mph - N/A   Overcast
12:53 PM 75.0 °F 68.0 °F 79% 30.02 in 10.0 mi SSE 12.7 mph - N/A   Overcast
1:29 PM 73.4 °F 68.0 °F 83% 30.00 in 10.0 mi SSE 11.5 mph - N/A   Overcast
1:53 PM 73.9 °F 68.0 °F 82% 29.99 in 10.0 mi SSE 15.0 mph 20.7 mph N/A   Overcast
2:11 PM 73.4 °F 68.0 °F 83% 29.99 in 10.0 mi SSE 12.7 mph 20.7 mph N/A   Overcast
2:18 PM 75.2 °F 68.0 °F 78% 29.99 in 10.0 mi SSE 12.7 mph 20.7 mph N/A   Overcast
2:53 PM 75.0 °F 68.0 °F 79% 29.98 in 10.0 mi SSE 13.8 mph - N/A   Overcast
3:29 PM 73.4 °F 66.2 °F 78% 29.98 in 10.0 mi SE 15.0 mph 21.9 mph N/A   Overcast
3:53 PM 72.0 °F 66.9 °F 84% 29.98 in 9.0 mi SE 13.8 mph - N/A   Overcast
4:26 PM 71.6 °F 66.2 °F 83% 29.98 in 8.0 mi SE 12.7 mph - N/A   Overcast
4:53 PM 72.0 °F 66.9 °F 84% 29.99 in 8.0 mi SE 12.7 mph 20.7 mph N/A   Overcast
5:26 PM 71.6 °F 66.2 °F 83% 30.00 in 7.0 mi SE 9.2 mph - N/A   Overcast
5:36 PM 71.6 °F 66.2 °F 83% 30.00 in 7.0 mi SE 9.2 mph - N/A   Overcast
5:53 PM 71.1 °F 66.9 °F 87% 30.00 in 7.0 mi SE 11.5 mph - N/A   Overcast
6:03 PM 71.6 °F 66.2 °F 83% 30.00 in 8.0 mi SE 10.4 mph - N/A   Overcast
6:12 PM 71.6 °F 66.2 °F 83% 30.00 in 8.0 mi SE 9.2 mph - N/A   Overcast
6:53 PM 71.1 °F 66.9 °F 87% 30.00 in 8.0 mi SE 12.7 mph - N/A   Overcast
7:07 PM 69.8 °F 66.2 °F 88% 30.00 in 7.0 mi SE 9.2 mph - N/A   Overcast
7:16 PM 69.8 °F 66.2 °F 88% 30.00 in 7.0 mi SE 10.4 mph - N/A   Overcast
7:35 PM 71.6 °F 66.2 °F 83% 30.01 in 7.0 mi SE 11.5 mph - N/A   Overcast
7:44 PM 71.6 °F 66.2 °F 83% 30.01 in 7.0 mi SE 9.2 mph - N/A   Overcast
7:53 PM 71.1 °F 66.9 °F 87% 30.01 in 7.0 mi SE 10.4 mph - N/A   Overcast
8:04 PM 71.6 °F 66.2 °F 83% 30.01 in 7.0 mi SE 10.4 mph - N/A   Overcast
8:16 PM 71.6 °F 66.2 °F 83% 30.01 in 6.0 mi SE 10.4 mph - N/A   Overcast
8:23 PM 71.6 °F 66.2 °F 83% 30.01 in 7.0 mi SE 9.2 mph - N/A   Overcast
8:42 PM 71.6 °F 66.2 °F 83% 30.02 in 6.0 mi SE 6.9 mph - N/A   Overcast
8:53 PM 71.1 °F 68.0 °F 90% 30.02 in 6.0 mi SE 8.1 mph - N/A   Overcast
9:53 PM 71.1 °F 66.9 °F 87% 30.01 in 6.0 mi SSE 6.9 mph - N/A   Overcast
10:53 PM 70.0 °F 66.9 °F 90% 30.03 in 5.0 mi Calm Calm - N/A   Overcast
11:48 PM 69.8 °F 66.2 °F 88% 30.03 in 2.5 mi Calm Calm - N/A   Overcast
11:53 PM 70.0 °F 66.9 °F 90% 30.03 in 4.0 mi SE 3.5 mph - N/A   Overcast